Weather History for KUIL - October, 2013

Change the Weather History Date:

Friday, October 4, 2013

  Actual Average Record
Temperature  
Mean Temperature 54 °F 53 °F  
Max Temperature 65 °F 62 °F 81 °F (1966)
Min Temperature 42 °F 43 °F 30 °F (1977)
Degree Days  
Heating Degree Days 11 12  
Month to date heating degree days 51 48  
Since 1 July heating degree days 342 673  
Cooling Degree Days 0 0  
Month to date cooling degree days 0 0  
Year to date cooling degree days 39 19  
Growing Degree Days 3 (Base 50)    
Moisture  
Dew Point 43 °F    
Average Humidity 72    
Maximum Humidity 92    
Minimum Humidity 52    
Precipitation  
Precipitation 0.00 in 0.24 in 1.74 in (1990)
Month to date precipitation 1.18 0.90  
Year to date precipitation 72.59 61.44  
Sea Level Pressure  
Sea Level Pressure 30.43 in    
Wind  
Wind Speed 3 mph (East)    
Max Wind Speed 9 mph    
Max Gust Speed 12 mph    
Visibility 5 miles    
Events Fog    
T = Trace of Precipitation, MM = Missing Value Source: NWS Daily Summary

Daily Weather History Graph

Daily Weather History Graph

Search for Another Location

Airport or City:

Trip Planner

Search our weather history database for the weather conditions in past years. The results will help you decide how hot, cold, wet, or windy it might be!

Date:

Astronomy

Oct. 04, 2013 Rise Set
Actual Time 7:22 AM PDT 6:50 PM PDT
Civil Twilight 6:51 AM PDT 7:21 PM PDT
Nautical Twilight 6:15 AM PDT 7:57 PM PDT
Astronomical Twilight 5:38 AM PDT 8:33 PM PDT
Moon 7:05 AM PDT (10/4) 6:33 PM PDT (10/4)
Length of Visible Light 12h 30m
Length of Day
11h 28m
Waning Crescent, 0% of the Moon is Illuminated
Oct 4
Waning Crescent
Oct 4
New
Oct 11
First Quarter
Oct 18
Full
Oct 26
Last Quarter

Hourly Weather History & Observations

Time (PDT) Temp. Windchill Dew Point Humidity Pressure Visibility Wind Dir Wind Speed Gust Speed Precip Events Conditions
12:12 AM 44.6 °F 43.1 °F 39.2 °F 81% 30.44 in 1.8 mi ENE 3.5 mph - N/A   Clear
12:20 AM 44.6 °F - 41.0 °F 87% 30.45 in 1.2 mi Calm Calm - N/A   Clear
12:28 AM 44.6 °F - 41.0 °F 87% 30.45 in 1.5 mi Calm Calm - N/A   Clear
12:35 AM 44.6 °F - 41.0 °F 87% 30.45 in 0.8 mi Calm Calm - N/A   Clear
12:46 AM 44.6 °F 43.1 °F 39.2 °F 81% 30.45 in 1.8 mi East 3.5 mph - N/A   Clear
12:53 AM 43.0 °F - 39.0 °F 86% 30.45 in 2.5 mi Calm Calm - N/A   Clear
1:01 AM 44.6 °F - 41.0 °F 87% 30.45 in 3.0 mi Calm Calm - N/A   Partly Cloudy
1:08 AM 44.6 °F 42.2 °F 41.0 °F 87% 30.45 in 1.8 mi East 4.6 mph - N/A   Scattered Clouds
1:10 AM 44.6 °F 42.2 °F 41.0 °F 87% 30.45 in 1.0 mi East 4.6 mph - N/A   Mist
1:18 AM 44.6 °F 41.4 °F 42.8 °F 93% 30.45 in 0.2 mi East 5.8 mph - N/A Fog Fog
1:53 AM 46.0 °F 43.1 °F 43.0 °F 89% 30.46 in 0.2 mi East 5.8 mph - N/A Fog Fog
2:03 AM 46.4 °F 43.5 °F 42.8 °F 87% 30.46 in 0.5 mi East 5.8 mph - N/A Fog Fog
2:37 AM 46.4 °F 44.3 °F 42.8 °F 87% 30.46 in 1.0 mi East 4.6 mph - N/A   Overcast
2:45 AM 46.4 °F 42.9 °F 42.8 °F 87% 30.45 in 0.5 mi East 6.9 mph - N/A Fog Fog
2:53 AM 46.0 °F 42.5 °F 43.0 °F 89% 30.46 in 0.5 mi ENE 6.9 mph - N/A Fog Fog
3:04 AM 46.4 °F 43.5 °F 42.8 °F 87% 30.46 in 1.5 mi ENE 5.8 mph - N/A   Mostly Cloudy
3:08 AM 44.6 °F 43.1 °F 42.8 °F 93% 30.46 in 3.0 mi ENE 3.5 mph - N/A   Mostly Cloudy
3:19 AM 44.6 °F - 42.8 °F 93% 30.45 in 4.0 mi Calm Calm - N/A   Scattered Clouds
3:53 AM 45.0 °F 42.6 °F 42.1 °F 90% 30.45 in 5.0 mi East 4.6 mph - N/A   Clear
4:53 AM 44.1 °F 42.5 °F 41.0 °F 89% 30.44 in 6.0 mi East 3.5 mph - N/A   Clear
5:33 AM 42.8 °F - 39.2 °F 87% 30.44 in 1.8 mi Calm Calm - N/A   Clear
5:40 AM 42.8 °F 41.1 °F 39.2 °F 87% 30.44 in 3.0 mi East 3.5 mph - N/A   Clear
5:53 AM 44.1 °F 42.5 °F 39.9 °F 85% 30.44 in 7.0 mi East 3.5 mph - N/A   Clear
6:53 AM 45.0 °F 42.6 °F 41.0 °F 86% 30.45 in 7.0 mi East 4.6 mph - N/A   Clear
7:53 AM 45.0 °F 43.5 °F 41.0 °F 86% 30.45 in 7.0 mi East 3.5 mph - N/A   Clear
8:53 AM 48.9 °F - 44.1 °F 83% 30.45 in 8.0 mi ENE 3.5 mph - N/A   Clear
9:53 AM 52.0 °F - 46.0 °F 80% 30.45 in 9.0 mi East 5.8 mph - N/A   Partly Cloudy
10:53 AM 57.0 °F - 46.9 °F 69% 30.44 in 9.0 mi Calm Calm - N/A   Scattered Clouds
11:53 AM 61.0 °F - 46.9 °F 60% 30.44 in 8.0 mi Calm Calm - N/A   Mostly Cloudy
12:53 PM 63.0 °F - 46.9 °F 56% 30.43 in 8.0 mi Variable 3.5 mph - N/A   Mostly Cloudy
1:53 PM 63.0 °F - 46.0 °F 54% 30.42 in 8.0 mi NW 5.8 mph - N/A   Overcast
2:53 PM 63.0 °F - 45.0 °F 52% 30.40 in 7.0 mi WSW 4.6 mph - N/A   Mostly Cloudy
3:53 PM 62.1 °F - 45.0 °F 53% 30.39 in 8.0 mi Variable 3.5 mph - N/A   Overcast
4:53 PM 62.1 °F - 45.0 °F 53% 30.38 in 8.0 mi SW 6.9 mph - N/A   Clear
5:53 PM 60.1 °F - 44.1 °F 55% 30.38 in 8.0 mi SSW 3.5 mph - N/A   Overcast
6:53 PM 57.9 °F - 45.0 °F 62% 30.37 in 8.0 mi Calm Calm - N/A   Overcast
7:53 PM 55.0 °F - 46.0 °F 72% 30.35 in 9.0 mi Calm Calm - N/A   Clear
8:53 PM 51.1 °F - 45.0 °F 80% 30.36 in 9.0 mi Calm Calm - N/A   Partly Cloudy
9:53 PM 50.0 °F - 45.0 °F 83% 30.36 in 9.0 mi Calm Calm - N/A   Clear
10:53 PM 48.9 °F - 45.0 °F 86% 30.35 in 7.0 mi Calm Calm - N/A   Clear
11:53 PM 51.1 °F - 46.0 °F 83% 30.35 in 8.0 mi East 3.5 mph - N/A   Mostly Cloudy